Regional Weather Roundup
Issued by NWS

Home | Current Version | Previous Version | Graphics & Text | Print | Product List | Glossary On
Versions: 1 2 3 4 5 6 7 8 9 10 11 12 13 14 15 16 17 18 19 20 21 22 23 24 25 26 27 28 29 30 31 32 33 34 35 36 37 38 39 40 41 42 43 44 45 46 47 48 49 50
000
ASUS43 KLSX 230359
RWRMO

WEATHER SUMMARY FOR MISSOURI
NATIONAL WEATHER SERVICE SPRINGFIELD MO
1100 PM CDT TUE APR 22 2014

NOTE: "FAIR" INDICATES FEW OR NO CLOUDS BELOW 12,000 FEET WITH NO
       SIGNIFICANT WEATHER AND/OR OBSTRUCTIONS TO VISIBILITY.
       CURRENT SKY AND/OR WEATHER CONDITIONS ARE NOT AVAILABLE FOR
       CHILLICOTHE AND FARMINGTON.

MOZ001>031-035>038-043-044-053-054-230500-
...NORTHERN AND WESTERN MISSOURI...

CITY           SKY/WX    TMP DP  RH WIND       PRES   REMARKS
KANSAS CTY INT CLEAR     56  33  42 SE8       30.01R
KANSAS C DTWN  CLEAR     60  34  37 E5        30.01R
LEE`S SUMMIT   CLEAR     58  34  40 SE5       30.02R
ST JOSEPH      MOCLDY    58  35  42 SE6       30.01R
KIRKSVILLE     CLEAR     50  33  52 NE6       30.05R

$$
MOZ066>068-077>081-088>096-101>105-230500-
...SOUTHWEST MISSOURI...

CITY           SKY/WX    TMP DP  RH WIND       PRES   REMARKS
SPRINGFIELD    CLEAR     52  38  58 NE3       30.01R
JOPLIN         PTCLDY    55  38  52 E6        30.00F

$$
MOZ032>034-039>042-045>050-055>058-069>072-230500-
...CENTRAL MISSOURI...

CITY           SKY/WX    TMP DP  RH WIND       PRES   REMARKS
COLUMBIA       CLEAR     54  34  46 NE6       30.03R
JEFFERSON CITY CLEAR     51  37  58 CALM      30.02S
ROLLA          CLEAR     47  34  60 CALM      30.01S
SEDALIA        CLEAR     57  35  43 CALM      30.03R
OSAGE BEACH    PTCLDY    54  34  47 CALM      30.03F

$$
MOZ051-052-059>065-230500-
...EAST CENTRAL MISSOURI...

CITY           SKY/WX    TMP DP  RH WIND       PRES   REMARKS
ST LOUIS INTL  PTCLDY    57  35  43 N5        30.02S
SPIRIT OF STL  CLEAR     46  41  82 CALM      30.02S
ST CHARLES     CLEAR     52  39  61 N5        30.01S

$$
MOZ072>076-082>087-097>100-106>115-230500-
...SOUTH CENTRAL AND SOUTHEAST MISSOURI...

CITY           SKY/WX    TMP DP  RH WIND       PRES   REMARKS
CAPE GIRARDEAU CLEAR     48  42  80 W5        29.99R
FARMINGTON     CLEAR     55  34  44 N3        30.03S
POPLAR BLUFF   CLEAR     56  42  59 N3        29.98R
WEST PLAINS    CLEAR     56  31  38 N6        30.01R

$$



USA.gov is the U.S. government's official web portal to all federal, state and local government web resources and services.